Wind_Speed
18 18 18 17 17 16 16 16 15 15 14 14 13 13 12 11 11 11 10 10 10 10 10 10 10 11 11 11 11 11 11 11 11 11 11 11 10 10 10 10 10 10 10 9 9 8 8 7 6 6 5 5 5 6 5 5 5 4 3 3 4 3 4 7 7 7 9 12 11 8 8 9 10 10 10 10 11 11 12 16 16 15 16 14 14 13 12 13
20 19 19 18 18 17 17 17 16 16 15 15 14 13 12 12 11 11 11 10 10 11 11 11 11 11 12 12 12 12 12 11 12 11 11 11 11 11 10 10 10 9 9 8 8 7 6 6 5 5 5 4 4 4 4 4 3 4 4 3 4 6 8 9 8 9 9 9 10 9 8 9 11 11 11 10 12 11 10 16 17 16 17 16 16 15 15 14
21 20 20 20 19 19 18 18 17 17 16 15 14 14 13 12 12 11 11 11 11 11 11 12 12 12 12 13 12 12 12 12 12 11 11 11 11 10 10 9 9 8 8 7 7 6 6 5 5 4 3 3 2 2 2 2 2 3 3 2 7 9 9 8 8 9 9 9 9 8 9 10 11 12 11 11 12 11 12 16 18 19 18 17 17 17 16 15
21 21 21 21 20 20 19 18 18 17 16 16 15 14 14 13 12 12 11 11 12 12 12 12 13 13 13 13 12 12 11 11 12 11 11 11 11 10 10 9 9 8 8 7 7 6 6 5 5 4 3 3 3 3 3 3 3 3 4 4 8 8 8 9 9 9 9 9 10 9 10 11 12 12 12 13 11 10 15 16 17 19 18 17 18 18 17 16
22 22 22 22 21 20 20 19 18 18 17 17 16 15 14 14 13 12 12 12 12 12 13 13 13 13 13 13 12 12 10 9 11 11 11 11 10 11 10 10 9 9 8 8 7 7 6 6 5 5 4 5 5 6 6 5 5 5 6 8 9 8 10 11 10 11 11 10 12 11 12 12 14 15 14 15 14 13 17 17 16 18 18 18 18 18 18 17
23 23 23 22 22 21 20 20 19 19 18 18 17 17 15 15 14 13 13 13 13 13 13 13 13 13 13 13 12 12 10 9 11 10 10 11 11 11 11 11 10 9 9 9 8 8 8 7 7 6 6 7 7 8 8 8 7 7 9 10 10 10 11 12 11 12 13 13 14 14 14 15 15 17 17 16 17 17 18 18 17 17 17 17 18 18 18 17
24 24 24 23 23 22 21 21 20 20 20 19 19 18 16 16 15 14 13 13 13 13 14 14 14 14 14 14 13 13 12 13 14 11 10 11 11 11 12 11 11 11 11 10 10 9 9 8 8 9 8 9 10 10 10 11 10 8 11 13 11 12 13 13 14 14 15 15 16 16 15 17 17 19 19 18 19 19 18 18 18 18 17 16 16 17 18 17
26 26 25 25 24 23 23 22 21 21 21 20 20 19 18 17 16 15 15 14 14 14 14 15 15 15 14 14 14 14 14 15 16 14 12 11 11 12 13 13 12 12 12 11 11 10 10 10 10 10 10 11 12 12 12 12 12 12 14 15 13 14 14 14 15 15 16 16 16 16 16 17 18 20 21 20 20 19 18 18 17 17 16 15 15 16 16 17
27 27 27 27 26 25 24 23 22 22 22 21 20 20 19 18 18 17 17 16 16 16 16 16 15 15 15 15 15 15 15 14 16 16 14 14 13 14 14 14 13 13 13 13 12 12 12 12 12 12 13 14 14 14 14 11 12 15 15 16 15 15 15 15 16 16 17 16 16 16 17 19 19 19 22 21 19 18 17 16 16 15 15 15 15 15 15 16
28 29 29 28 27 26 25 24 23 23 22 22 22 21 21 20 19 19 18 18 17 17 17 17 17 16 16 16 15 17 16 14 16 17 16 16 15 15 15 14 14 14 14 14 14 14 14 14 14 14 15 16 15 16 16 14 15 17 17 17 17 17 16 16 17 17 17 16 17 16 17 20 19 19 22 20 18 17 16 16 15 14 15 15 16 16 16 16
29 30 30 30 29 28 26 25 25 24 23 23 23 23 22 21 21 20 20 19 19 19 19 18 18 18 17 17 18 18 17 15 16 17 17 17 16 16 16 15 16 15 15 15 15 16 16 16 16 15 16 16 16 16 17 17 17 18 18 18 18 18 17 18 17 17 17 16 17 17 19 21 20 20 22 19 17 17 16 16 16 16 16 17 18 18 18 19
31 31 31 31 30 29 28 27 26 25 25 24 24 24 23 23 22 22 21 21 21 20 20 20 20 19 19 20 19 19 17 17 18 18 17 18 17 17 17 17 17 17 17 17 17 17 17 17 17 17 17 16 16 17 17 17 17 18 18 18 19 19 19 19 18 17 17 18 17 17 18 20 20 19 18 16 16 17 17 17 17 18 19 20 21 20 20 19
32 32 32 32 32 31 29 28 27 26 26 26 26 25 25 24 24 24 23 23 22 22 22 21 21 21 22 22 21 19 19 19 19 19 19 19 18 18 18 18 18 18 18 19 19 18 18 18 18 18 18 18 19 19 18 19 19 18 20 21 20 18 18 20 19 17 16 16 15 14 13 13 14 15 15 15 17 18 18 18 18 18 20 21 21 20 19 19
33 33 33 33 33 32 31 29 28 28 27 27 27 27 26 26 25 25 25 25 24 24 23 23 23 23 23 24 21 20 20 21 21 20 20 20 20 19 19 19 19 19 19 20 20 19 20 20 19 20 20 19 20 20 20 22 21 20 21 21 20 16 15 18 19 16 15 14 14 14 13 13 14 16 17 18 18 19 20 20 19 19 19 19 19 19 19 19
34 34 34 34 34 33 32 31 30 29 29 29 29 28 28 27 27 27 26 26 25 25 25 24 24 23 25 26 23 21 21 21 21 21 21 21 21 21 20 20 20 20 20 21 21 21 21 20 20 21 21 20 20 21 20 21 21 21 19 15 14 13 12 15 20 19 17 16 15 15 13 12 17 19 18 19 18 19 20 19 19 19 19 19 19 19 19 19
36 35 35 35 35 34 33 32 32 31 31 30 30 30 29 29 29 28 28 27 27 26 26 25 24 24 26 26 23 22 22 22 22 21 22 22 22 22 21 21 22 21 21 22 22 22 22 22 22 21 22 20 20 21 17 15 17 19 20 15 13 13 11 13 19 21 18 16 16 17 14 11 16 20 19 19 19 19 19 19 19 19 20 20 19 19 19 19
37 37 37 36 36 36 35 34 33 33 32 32 31 31 31 31 30 30 29 29 28 27 27 27 25 26 28 26 23 21 21 21 22 23 24 24 24 23 23 23 22 22 22 22 22 23 22 23 22 22 22 21 22 21 14 12 14 15 17 18 15 15 15 13 16 19 18 16 16 19 21 19 20 24 23 22 21 20 21 21 21 22 22 22 21 21 20 20
38 38 38 38 37 37 36 36 35 34 33 33 33 32 32 32 31 31 31 30 29 29 28 28 27 27 28 25 24 22 20 21 22 23 23 24 23 23 23 22 22 22 22 22 23 24 23 24 23 22 23 24 25 23 19 17 15 12 13 13 13 15 17 15 14 18 19 18 18 19 22 23 23 27 27 25 24 24 25 25 25 25 24 24 23 22 21 19
39 39 39 39 38 37 37 37 36 35 35 34 34 33 33 32 32 33 32 31 31 30 28 28 27 26 26 24 23 22 21 23 24 24 24 23 23 23 23 23 23 23 23 24 25 24 24 25 25 23 25 28 28 27 25 21 16 15 15 14 14 13 14 15 16 22 24 22 22 22 22 22 21 26 29 28 26 26 26 26 25 25 24 23 21 19 17 15
39 39 40 40 39 38 38 38 37 37 36 36 35 34 33 33 33 33 33 33 32 30 30 31 29 28 28 27 25 23 23 23 23 22 22 22 22 23 23 23 23 23 24 24 25 25 24 26 29 27 27 26 26 27 24 20 20 21 21 19 19 18 18 17 19 26 27 24 24 22 21 24 22 25 30 29 26 26 26 25 23 21 19 18 17 15 14 13
40 40 40 40 39 39 39 39 39 38 37 37 36 34 34 33 32 33 34 33 32 31 32 33 33 33 33 31 28 26 26 25 24 22 21 20 20 20 21 21 22 24 24 24 26 28 26 30 32 29 27 24 23 26 23 21 23 23 23 20 18 20 21 20 23 30 30 27 28 23 23 27 24 25 30 27 24 24 22 21 18 16 14 14 14 14 14 14
40 40 40 40 40 39 40 40 39 38 38 38 37 35 34 33 33 34 34 34 35 34 33 34 35 35 34 33 31 29 29 29 28 27 25 24 23 24 25 25 25 26 27 28 29 29 30 35 34 28 28 28 26 27 25 24 25 24 24 21 19 20 19 19 24 29 27 25 23 19 22 25 21 23 27 23 23 23 18 16 14 13 13 13 14 14 15 15
41 41 40 40 40 40 40 40 40 40 39 38 37 34 33 33 33 33 33 35 38 36 35 35 36 35 34 35 32 31 33 33 31 30 29 28 28 27 29 29 28 29 31 32 31 30 33 34 31 27 28 29 28 28 27 26 27 27 26 23 21 20 18 17 19 21 23 22 18 17 23 26 22 26 28 23 22 21 16 15 14 14 14 14 15 14 14 14
42 42 41 41 40 41 41 40 41 40 39 39 36 34 34 34 33 32 32 35 39 41 38 36 36 37 36 36 33 32 34 33 33 34 31 30 30 29 31 31 29 30 35 34 31 32 34 32 30 27 25 24 25 26 27 26 27 28 28 27 24 21 19 17 17 21 24 24 24 22 23 27 27 30 29 24 22 19 16 16 15 15 15 14 14 14 14 14
44 43 43 43 42 42 42 42 43 40 39 38 35 34 34 33 32 31 31 31 38 42 40 39 38 38 39 38 35 34 36 35 37 37 33 31 33 32 33 32 31 33 35 34 33 34 34 32 32 31 29 28 26 27 26 25 25 24 24 26 25 23 21 17 18 23 21 18 21 17 12 15 18 21 23 20 20 19 17 17 16 14 14 14 15 15 15 14
46 46 45 44 44 44 43 45 42 39 40 37 34 35 34 33 30 29 27 25 34 44 43 40 37 36 39 39 37 35 36 40 41 38 35 34 35 34 34 36 36 35 33 32 33 34 35 34 34 33 33 32 30 30 29 27 26 21 18 21 23 23 22 19 20 21 14 9 12 11 10 10 9 12 16 16 18 18 17 16 15 15 16 17 17 15 14 13
48 47 47 46 46 46 46 45 41 40 39 34 34 35 33 31 27 26 22 16 26 39 41 39 38 37 37 36 35 32 33 39 39 36 38 38 37 37 37 39 40 37 35 32 29 33 36 35 35 34 31 32 33 31 30 30 27 22 20 23 24 24 21 18 19 20 15 12 12 13 14 13 13 13 12 13 16 16 17 17 16 17 17 17 15 14 12 11
48 48 47 47 46 45 45 44 41 39 36 33 34 33 30 28 24 22 14 6 14 25 26 29 33 36 36 33 33 32 35 38 35 33 37 36 37 40 40 40 40 38 38 36 32 33 34 31 30 30 28 30 32 31 30 29 27 25 25 25 24 22 18 16 16 16 14 13 13 14 16 12 13 17 17 18 20 19 19 18 17 17 17 15 13 12 11 11
48 47 47 46 45 46 45 45 42 37 34 34 33 31 29 26 23 19 10 7 17 24 22 22 25 28 28 29 30 31 35 37 35 35 34 31 33 38 40 41 38 34 36 38 36 33 31 29 28 27 27 29 29 28 27 25 26 28 26 26 24 20 16 14 14 12 11 12 13 15 18 13 11 17 21 22 24 23 20 18 17 17 15 14 12 11 11 12
47 48 47 46 47 47 47 45 41 36 35 35 33 32 30 26 24 17 8 12 21 21 20 20 23 27 25 25 24 25 29 31 33 34 32 31 32 33 37 38 36 34 35 37 37 37 36 33 32 31 30 30 29 27 24 23 26 27 25 23 20 17 15 13 11 10 8 12 16 18 21 17 10 12 17 22 23 19 18 17 16 16 14 12 11 11 13 14
47 47 47 48 48 47 47 44 40 37 36 35 34 33 30 27 26 16 10 24 27 20 20 21 23 26 24 23 23 23 25 27 29 30 31 33 33 34 35 35 35 34 34 38 38 39 41 38 36 37 36 32 29 26 24 25 27 26 24 18 12 9 10 11 10 9 8 10 14 19 23 20 14 11 13 19 20 15 16 18 16 14 13 12 13 13 14 15
50 49 48 49 48 47 47 44 38 35 35 36 35 33 32 27 24 24 25 26 18 16 21 23 25 25 21 22 24 24 25 26 28 30 33 35 34 37 37 36 36 29 25 33 37 37 40 42 40 39 38 34 29 27 27 27 27 26 21 15 11 7 6 8 9 8 11 11 10 17 22 19 20 20 15 14 15 15 17 18 17 15 13 13 13 14 16 16
52 51 50 51 50 49 48 42 37 36 36 36 33 35 35 23 22 39 43 28 12 11 15 16 20 23 22 24 27 27 27 30 32 31 34 36 34 35 36 35 37 31 20 20 26 28 27 32 38 39 39 38 35 33 32 30 29 29 25 22 17 9 4 7 9 8 11 11 10 16 16 12 16 20 21 20 18 18 20 18 17 15 13 14 15 16 17 17
49 50 51 52 50 49 47 43 40 39 38 37 35 36 35 25 30 44 44 38 32 24 18 12 12 19 24 27 28 28 28 31 33 32 33 34 34 35 37 35 35 37 28 15 16 22 17 16 25 30 32 34 37 38 35 33 31 30 30 27 23 17 10 7 7 8 6 4 10 14 10 8 9 13 21 26 24 22 22 19 17 16 16 16 17 18 18 18
44 47 51 54 53 51 50 48 44 40 38 39 40 41 38 35 42 43 38 44 46 39 33 23 13 18 25 29 28 25 26 29 30 31 33 35 36 36 37 37 35 36 34 22 15 19 19 19 23 24 23 24 27 32 34 33 29 27 28 27 26 25 20 11 7 6 3 1 7 14 11 11 12 12 14 22 28 27 23 20 18 18 19 19 20 20 19 18
40 41 46 52 56 54 53 51 47 42 39 39 42 47 47 46 46 42 38 42 45 46 43 30 19 21 26 30 29 24 25 28 29 31 33 35 37 38 38 37 35 35 36 32 24 19 16 17 24 27 25 23 23 26 32 33 26 23 28 32 32 31 25 14 8 7 6 5 6 14 15 15 16 15 15 19 24 26 23 20 20 21 22 22 22 22 20 18
42 39 39 44 49 51 53 52 49 45 42 42 45 47 50 52 50 47 43 40 42 45 42 31 25 26 27 29 29 27 27 30 31 32 32 32 32 37 40 37 35 34 35 34 32 28 20 15 20 25 23 24 25 25 30 34 29 24 27 33 34 30 26 17 7 5 7 6 6 13 16 16 15 15 17 20 23 25 24 21 22 24 24 23 22 21 19 18
42 42 42 43 43 45 47 48 48 46 43 45 49 48 49 51 52 53 49 44 40 40 40 36 32 29 29 29 28 30 32 32 33 33 31 30 28 29 33 34 34 33 32 32 32 32 29 21 19 23 23 22 24 26 28 33 35 31 28 28 27 22 21 21 12 6 6 6 6 9 13 19 21 18 18 22 23 24 24 22 23 24 23 21 20 19 18 18
35 43 48 45 42 40 40 41 43 45 45 47 50 51 52 52 53 52 51 49 43 37 37 38 35 31 30 30 29 32 34 35 36 35 31 29 28 28 28 26 27 28 28 32 36 36 33 24 15 19 23 21 22 30 33 34 36 38 33 29 27 21 16 20 19 10 6 6 6 5 7 13 22 24 24 25 21 20 21 21 21 21 20 19 18 18 18 18
34 39 44 41 39 38 37 39 43 47 51 53 53 54 54 54 55 53 49 48 45 40 37 36 36 34 31 30 30 31 33 35 38 37 33 31 28 27 27 24 25 27 24 26 35 37 33 27 19 16 20 22 24 32 37 37 38 41 40 33 32 31 21 15 19 20 13 6 5 6 6 7 12 18 21 21 19 18 18 16 16 18 18 18 17 18 18 17
36 39 41 38 37 38 39 43 49 52 55 55 55 55 53 51 51 50 47 46 45 43 41 37 35 35 34 33 33 32 31 33 36 36 36 37 33 28 27 27 26 27 24 24 33 37 34 32 27 20 21 27 30 32 34 35 38 41 45 43 37 37 30 14 12 22 22 14 8 6 7 7 8 12 14 16 17 17 14 13 15 17 17 16 17 18 17 16
38 44 47 42 38 39 42 48 53 53 54 55 55 54 51 48 47 46 45 44 44 44 44 42 39 36 35 35 34 33 31 31 33 35 37 40 39 35 33 31 26 25 25 26 32 36 36 33 27 20 23 28 31 32 32 34 38 40 44 44 34 33 37 25 10 13 21 23 19 10 7 11 11 12 16 18 18 15 12 13 17 17 15 15 17 18 17 16
39 42 45 43 40 39 41 48 52 52 52 54 54 49 46 46 46 45 44 42 42 44 45 46 45 42 40 38 35 34 33 32 33 36 38 38 40 41 40 37 32 27 25 26 30 34 35 33 27 20 21 26 28 32 34 34 37 40 44 45 38 37 42 37 21 11 12 21 21 9 7 11 12 15 19 16 14 13 13 14 15 15 15 16 17 18 18 18
42 40 40 42 42 41 42 47 50 52 52 51 50 48 45 45 45 46 46 44 43 44 44 44 44 43 43 43 40 38 37 34 33 36 38 39 41 43 42 40 37 33 30 29 30 30 32 35 29 16 11 15 18 23 29 35 39 41 45 47 46 44 39 38 33 20 14 23 23 12 10 11 13 18 19 16 16 15 14 16 16 15 16 18 19 20 20 21
44 43 42 43 43 43 43 46 48 50 51 49 49 49 48 47 48 49 48 45 44 43 42 42 41 39 39 41 42 42 41 39 36 34 36 39 40 42 41 38 37 38 37 35 32 29 31 35 33 23 13 11 11 12 21 37 44 45 46 46 48 47 42 40 36 22 19 27 27 24 19 9 10 16 17 17 17 15 15 17 16 16 17 19 20 21 22 23
45 46 46 45 45 44 44 45 45 46 48 48 49 50 50 50 50 50 48 45 44 43 42 42 41 39 38 40 42 44 43 41 38 37 38 40 38 38 38 37 37 38 39 38 35 31 31 35 38 40 35 28 22 19 20 29 37 44 49 49 49 50 49 45 34 27 27 24 27 38 32 15 14 17 14 16 16 15 17 18 17 17 18 20 21 22 23 23
47 48 48 46 42 41 43 44 45 46 48 48 48 49 50 51 51 49 46 44 44 44 42 41 41 41 41 42 43 44 43 39 38 41 43 43 42 40 40 39 38 38 39 40 38 35 34 37 41 45 46 41 37 31 25 23 26 35 44 49 51 49 48 47 43 44 38 23 25 40 34 25 29 25 17 20 20 19 23 22 19 18 19 20 22 23 24 23
48 49 50 50 44 41 44 47 47 49 49 48 46 45 45 47 49 48 45 43 43 42 40 39 41 41 41 42 40 39 39 36 37 41 42 42 44 43 43 43 40 39 40 40 41 41 40 42 45 44 44 46 45 40 34 26 22 25 32 40 48 50 49 50 52 52 43 32 36 39 28 29 35 26 22 27 26 26 28 24 21 20 21 23 24 25 25 24
49 49 50 50 50 48 47 45 44 46 48 48 47 46 45 44 44 45 43 41 40 39 37 38 39 38 39 40 39 39 40 37 37 40 40 39 40 40 41 41 40 40 41 40 43 43 41 42 46 44 43 46 48 47 43 34 25 25 27 31 40 47 49 51 52 50 44 42 47 41 29 31 34 26 25 29 30 30 29 26 27 28 28 27 25 25 25 24
50 50 49 48 49 51 49 44 41 41 45 47 47 47 49 47 44 43 43 41 39 36 35 37 37 36 35 36 38 40 39 36 35 36 35 34 36 36 36 37 37 38 40 40 42 42 41 42 44 43 40 41 46 49 46 39 32 27 26 30 36 39 41 43 47 47 45 47 49 40 32 37 41 34 31 34 35 35 33 33 35 34 31 28 25 25 25 25
50 51 50 47 46 48 50 49 46 42 42 45 46 46 47 47 44 43 42 41 38 36 35 34 32 30 30 31 34 35 33 30 31 31 31 32 34 33 33 35 35 36 37 39 40 41 42 43 42 40 35 34 41 44 43 44 38 29 32 39 38 33 32 37 42 44 44 46 44 37 36 43 43 38 35 37 40 40 39 38 35 32 30 27 26 27 28 30
49 50 50 49 48 47 46 47 48 46 44 44 43 41 41 42 41 41 40 38 36 33 30 28 26 26 27 29 31 30 28 28 30 30 30 32 33 34 35 36 35 35 36 38 39 42 44 44 42 37 27 24 30 33 35 33 23 22 41 52 43 35 35 36 39 42 42 40 36 36 41 42 39 37 38 41 42 41 38 34 31 30 29 29 31 33 34 37
Wind_Direction
199 198 198 199 199 200 201 200 199 198 196 195 194 195 196 199 203 207 213 218 225 229 233 238 240 243 246 248 248 249 249 249 249 249 250 250 250 248 247 250 251 252 252 254 253 252 255 254 256 259 262 263 262 265 265 260 255 247 229 209 234 214 220 232 211 205 209 227 245 240 230 230 236 244 246 257 270 277 291 289 288 292 290 289 289 290 287 285
206 204 204 204 204 204 204 203 201 199 199 198 198 201 204 208 212 216 222 228 234 238 242 245 247 248 249 250 250 251 251 251 250 248 248 249 249 248 247 247 247 247 246 245 245 243 244 245 247 250 251 254 259 262 260 254 242 229 204 198 244 229 229 235 225 223 219 233 248 242 238 235 237 241 242 252 262 272 289 286 286 287 287 290 292 292 290 287
210 208 207 206 206 206 205 204 203 203 203 204 205 207 210 214 218 223 228 234 239 243 245 248 250 251 252 253 254 255 256 257 255 251 249 248 249 247 244 242 240 237 236 234 233 233 234 235 232 228 229 233 244 248 244 236 219 211 179 197 252 240 239 242 239 240 239 248 254 249 247 246 248 249 248 248 255 269 272 273 281 283 283 287 287 286 286 285
214 212 210 208 208 208 207 207 208 209 209 209 211 213 215 219 223 228 233 238 241 244 247 249 251 253 255 256 258 260 262 267 264 255 249 247 246 245 240 235 231 227 227 226 227 226 227 224 218 215 221 238 249 256 260 255 240 217 194 223 246 245 250 250 246 250 251 255 260 260 259 258 259 259 258 256 256 265 267 268 274 278 281 283 282 282 281 281
217 215 213 211 211 211 212 212 213 214 215 215 216 218 220 224 227 231 235 240 243 246 248 251 253 255 258 260 262 263 264 272 267 255 249 246 241 240 236 229 224 223 222 223 224 226 227 225 225 231 240 254 266 269 268 265 264 257 243 242 248 253 257 256 256 257 256 258 262 264 265 265 266 265 262 262 260 256 266 274 272 272 276 275 276 277 276 276
220 218 217 216 215 216 217 217 218 218 219 220 221 223 225 228 232 235 239 243 246 250 252 255 258 259 261 261 262 260 253 252 257 255 248 242 238 235 229 225 224 223 223 224 227 230 233 233 238 244 252 262 267 269 273 273 271 269 261 256 256 257 258 261 261 260 261 261 263 265 267 269 270 269 265 263 265 265 270 275 273 272 271 270 270 271 271 270
223 221 220 219 219 220 221 221 222 222 223 224 226 228 230 233 237 241 245 249 251 255 258 260 262 263 264 263 262 258 248 244 250 253 246 238 231 228 225 228 229 227 226 227 230 233 235 240 246 251 259 266 266 268 272 273 272 265 264 266 264 263 263 265 265 264 265 265 266 267 267 269 269 270 269 266 268 270 272 272 274 274 270 267 265 266 268 267
225 223 222 221 221 222 223 224 225 225 226 228 230 232 235 238 242 246 249 253 256 258 261 262 264 265 265 265 262 258 251 247 249 247 243 236 228 228 230 233 232 230 230 231 233 235 240 245 250 256 261 262 265 270 270 276 278 267 265 272 272 269 269 268 268 268 267 268 270 271 270 269 268 269 271 271 271 271 272 272 272 271 269 266 263 263 265 266
226 225 224 223 222 223 224 225 227 227 229 231 234 237 239 242 245 249 252 255 258 260 262 263 265 265 265 264 262 259 254 248 249 247 242 239 237 236 236 235 234 233 233 234 236 239 245 250 253 258 262 263 267 270 270 273 275 268 268 274 274 273 273 272 271 270 270 271 271 272 271 268 268 270 271 271 272 274 275 274 270 267 267 266 263 262 262 265
228 227 225 224 223 224 225 226 228 229 231 234 237 240 242 245 248 251 255 258 260 262 264 264 264 264 263 262 259 257 255 249 248 248 244 242 241 240 240 239 238 237 237 237 240 244 249 254 257 259 263 267 268 269 271 268 266 270 273 274 274 275 274 273 272 272 273 273 272 271 269 268 268 267 269 271 274 275 275 273 270 265 263 263 263 263 264 267
230 228 226 225 224 225 225 227 229 230 233 235 238 241 244 247 250 254 257 260 263 264 265 265 265 264 262 259 255 253 253 249 247 247 245 244 243 243 242 241 241 240 242 243 245 249 253 256 259 262 264 268 270 270 271 269 268 272 275 275 275 275 275 274 273 274 275 274 272 270 267 268 267 264 266 271 272 271 270 270 269 266 263 262 263 266 269 273
231 229 228 226 225 225 226 227 229 231 233 236 238 241 245 248 251 255 258 261 264 265 265 266 265 263 261 257 253 253 252 246 245 246 246 245 245 244 243 241 242 244 246 249 251 253 256 258 260 261 263 267 271 272 272 273 273 274 275 277 279 282 281 277 276 275 274 274 272 270 270 270 267 264 266 267 266 266 266 265 265 265 264 264 265 268 272 275
231 230 229 227 227 227 227 228 229 231 233 236 239 241 244 247 251 255 258 261 263 264 265 265 264 263 261 257 253 251 249 246 245 245 246 247 246 246 246 245 246 247 249 251 254 256 257 259 260 261 262 264 267 270 273 274 275 277 278 277 281 286 284 280 281 279 274 272 271 268 273 276 268 265 265 263 265 265 265 265 264 262 262 263 266 269 272 276
232 231 230 229 228 228 229 230 231 233 234 237 239 241 244 247 250 254 257 260 261 262 263 263 263 262 259 257 254 249 246 245 245 245 246 248 248 247 247 248 249 251 252 254 255 256 257 258 260 261 261 262 266 270 273 274 274 276 279 281 285 283 274 275 278 277 272 268 267 267 271 272 264 265 268 268 268 266 265 266 264 261 260 262 265 269 273 275
232 231 231 231 230 230 231 232 233 235 236 238 240 242 244 247 250 253 256 258 260 261 262 262 261 261 260 258 255 250 247 245 245 246 247 247 248 248 248 249 251 252 253 255 256 257 257 258 259 261 263 263 267 270 272 276 278 277 275 277 280 274 265 273 276 272 270 267 262 261 266 268 265 266 268 270 268 265 265 264 263 262 262 263 265 268 270 272
233 232 232 232 232 232 233 233 235 236 237 239 241 243 245 248 250 253 255 257 258 259 260 260 259 259 260 260 257 253 249 248 247 247 247 248 249 249 250 250 251 253 255 256 257 258 258 259 259 260 263 265 266 267 269 273 275 275 273 265 261 263 261 268 275 273 269 264 258 253 252 261 270 269 267 271 270 265 263 262 261 261 262 264 265 265 267 271
234 234 233 233 233 233 234 235 236 237 239 240 242 244 247 250 252 254 255 257 258 259 258 258 256 257 258 259 258 254 251 249 248 248 248 248 250 251 252 253 254 255 255 256 256 257 258 259 260 262 263 263 262 262 255 250 255 261 267 267 261 258 258 260 269 273 267 257 255 257 258 259 265 268 269 271 269 265 264 262 262 261 261 263 264 266 270 273
236 235 235 234 234 235 235 236 237 238 239 241 243 246 248 251 253 255 256 257 258 257 257 256 255 257 259 258 257 254 250 250 248 247 247 248 249 251 253 254 254 254 255 256 256 258 259 260 259 259 261 260 257 250 242 248 260 260 258 265 266 260 262 265 263 265 265 262 260 262 265 266 267 271 273 271 266 264 264 263 263 263 262 263 265 267 268 269
236 236 236 236 236 236 237 237 237 238 239 241 243 246 249 252 254 255 257 257 257 256 258 258 255 256 258 257 256 254 250 249 248 247 248 249 250 251 252 252 253 255 255 256 257 257 257 258 255 253 256 260 260 256 257 264 269 261 256 259 264 262 262 264 259 259 265 269 267 265 265 266 268 271 273 271 269 266 264 263 262 262 262 260 261 260 258 258
236 236 236 236 236 237 237 238 238 238 239 241 243 246 249 251 254 257 257 257 258 258 258 257 256 255 256 255 254 254 252 250 249 248 247 247 247 248 248 249 250 250 251 254 256 256 255 255 254 254 259 262 264 267 269 265 256 255 259 262 262 258 259 263 262 265 270 269 268 270 267 264 263 266 270 271 270 267 264 263 262 259 256 251 248 247 247 251
235 236 236 236 236 236 237 237 238 239 240 242 244 246 249 251 254 257 259 259 258 256 256 257 256 255 255 255 254 254 255 254 252 249 246 244 243 245 246 246 248 248 251 252 253 257 257 253 255 260 263 257 255 264 265 256 255 259 260 261 259 258 261 263 262 268 274 273 273 275 269 269 269 264 266 269 267 265 264 261 256 249 243 239 238 240 246 254
236 236 236 236 236 236 237 237 238 239 241 242 244 246 250 252 254 258 261 262 259 255 255 256 256 255 256 256 255 255 256 255 254 252 250 251 249 251 253 251 253 255 256 253 253 259 257 255 259 262 261 258 255 260 261 258 259 259 256 255 255 258 262 263 266 273 277 277 278 273 265 271 272 264 266 266 262 261 259 252 242 236 236 237 241 246 251 257
236 236 236 236 235 236 237 238 239 240 241 243 245 247 250 252 254 256 260 263 262 257 254 254 256 256 256 255 254 255 255 254 256 255 253 253 253 254 257 256 256 258 257 255 254 255 255 258 262 259 258 262 263 261 259 258 258 256 255 251 251 257 259 262 270 276 277 277 275 271 271 273 268 265 267 263 259 257 249 241 235 235 240 241 244 250 254 257
236 235 236 236 236 237 238 239 240 241 243 244 246 248 249 251 253 255 259 263 265 261 256 255 255 255 255 255 254 252 254 254 254 254 250 251 254 253 256 258 258 257 256 256 257 256 257 260 261 259 259 261 260 258 255 254 256 257 256 252 252 255 258 265 270 271 276 279 277 277 280 278 270 267 269 263 254 249 239 238 240 239 240 242 247 253 259 264
236 236 236 236 236 238 238 240 241 242 245 246 247 247 248 250 252 255 260 267 269 264 259 257 256 256 254 253 252 252 254 254 252 252 252 251 252 252 254 256 254 253 254 256 258 258 257 255 255 257 258 256 256 257 257 255 255 256 257 259 260 259 258 262 266 271 278 279 276 276 275 279 271 261 264 258 244 242 240 239 238 236 238 246 256 261 263 266
237 237 237 237 237 239 239 241 242 244 245 246 246 246 246 249 251 255 260 270 272 267 263 259 256 255 253 251 251 251 254 255 252 253 253 251 251 251 252 254 252 249 250 254 256 255 251 248 252 255 257 257 256 257 259 258 255 253 252 257 264 265 261 256 257 265 270 260 263 258 243 269 277 257 258 248 233 234 235 232 233 238 248 255 259 261 259 259
237 237 237 238 238 239 240 241 242 243 244 244 244 245 245 247 249 254 259 271 273 267 264 258 254 253 252 252 251 245 246 253 253 252 251 250 250 250 249 251 252 250 246 246 247 250 251 249 252 256 257 257 255 255 258 258 253 248 248 255 263 267 264 257 254 256 257 254 258 248 236 255 266 251 245 231 223 227 228 232 243 249 255 257 252 249 247 252
236 237 237 237 238 239 240 240 240 240 241 241 241 242 243 245 247 248 248 253 260 263 263 254 251 253 252 251 250 243 243 250 252 252 251 250 249 248 247 247 249 252 249 243 241 250 257 254 254 258 258 257 255 255 258 258 254 248 251 257 261 264 262 256 254 252 253 258 256 241 231 243 252 242 243 242 238 241 242 244 253 255 252 245 236 234 240 252
236 236 237 237 237 237 238 237 237 236 236 237 238 240 239 239 240 232 216 232 250 254 255 249 246 249 250 248 246 243 245 248 249 252 253 250 247 246 246 244 242 244 248 246 243 249 255 255 255 256 254 253 254 255 255 255 253 250 253 256 258 263 260 254 253 246 245 248 242 229 222 229 251 243 242 248 246 247 251 251 248 242 231 222 222 235 248 254
236 236 236 235 235 236 236 236 235 233 233 234 234 235 234 231 224 209 194 232 243 250 246 241 244 246 245 243 241 241 243 245 247 249 248 246 245 245 245 244 239 237 243 246 246 246 249 253 255 253 251 250 250 252 250 247 246 248 252 253 255 259 254 250 246 236 243 249 239 228 221 225 253 245 230 240 248 248 249 242 227 215 207 214 233 248 254 254
236 236 235 235 235 236 237 237 236 233 232 232 231 229 227 224 212 196 217 236 239 249 241 235 242 243 242 244 246 244 241 242 244 245 245 244 242 240 238 238 235 233 240 245 247 249 249 250 250 250 251 250 249 249 244 241 241 245 247 242 239 241 241 244 236 224 239 252 240 227 219 218 236 234 216 235 246 240 229 217 202 203 214 233 251 256 254 253
235 235 236 236 236 237 237 237 235 233 232 230 230 229 221 213 206 210 226 235 242 251 239 235 240 241 242 244 245 245 242 243 246 244 245 243 241 240 239 237 234 229 236 243 244 249 252 250 249 251 251 249 246 242 238 236 235 237 231 211 207 212 213 229 225 220 234 243 236 219 212 218 237 238 221 224 232 214 201 199 200 216 231 245 258 257 250 250
234 235 236 236 235 235 235 235 231 229 230 227 226 224 214 202 213 224 226 227 232 243 238 236 237 237 237 234 236 241 240 242 244 241 241 241 239 241 243 241 236 233 237 244 238 240 251 256 253 250 249 248 242 235 234 234 229 227 217 197 197 205 211 232 225 227 237 233 216 203 205 226 243 239 228 222 222 209 203 208 217 230 246 256 256 249 246 246
233 233 235 235 235 235 234 233 231 227 224 222 220 214 204 205 230 233 229 228 230 237 245 242 222 220 223 225 232 238 235 237 240 237 237 238 236 237 239 237 235 233 235 239 233 229 233 254 256 252 251 249 245 239 238 239 235 233 227 213 209 211 218 236 227 229 231 191 184 184 193 226 224 231 233 223 212 207 214 222 227 240 254 255 246 240 243 243
233 234 235 236 235 234 233 232 232 228 220 217 214 207 201 212 230 232 231 231 232 236 243 243 224 210 215 221 228 233 231 233 237 236 236 237 236 239 240 239 236 232 229 228 229 230 232 247 256 258 257 253 248 241 235 233 236 238 228 217 216 219 226 249 268 251 241 119 184 188 203 224 215 223 226 210 205 208 217 223 228 242 245 238 235 235 237 239
231 234 234 235 233 233 233 232 232 230 224 216 208 204 210 222 229 230 231 233 235 238 238 235 221 209 212 220 224 228 229 231 233 233 235 237 239 241 242 242 241 237 233 230 228 228 231 245 253 254 254 250 244 238 230 226 227 226 217 215 219 218 220 240 274 261 255 280 225 198 213 227 226 230 213 197 205 210 214 224 232 238 235 229 229 229 231 235
228 231 231 233 234 234 233 232 231 230 228 221 211 210 219 228 231 232 233 232 234 237 235 229 224 219 219 223 228 232 232 231 232 232 231 233 238 240 239 241 242 241 241 239 236 238 238 245 255 254 252 248 241 234 230 227 224 218 214 220 224 221 220 228 253 252 231 256 233 202 214 223 220 226 215 204 211 215 220 231 234 231 229 226 225 224 229 233
230 233 231 228 230 234 234 232 229 228 229 223 217 221 228 231 232 232 233 233 233 235 232 229 230 231 231 232 234 236 231 225 226 227 227 230 239 244 240 240 242 242 244 241 236 239 241 244 254 254 251 251 244 234 226 225 223 221 222 223 218 217 221 219 223 244 219 233 254 212 213 224 221 221 222 218 217 218 224 230 228 226 225 222 221 224 227 230
236 235 232 228 228 230 231 231 228 226 226 220 216 222 229 233 234 234 234 235 235 234 233 233 232 231 234 236 237 238 233 226 225 224 225 230 240 247 245 241 243 244 245 242 237 237 237 237 245 251 249 246 237 226 221 220 220 219 224 227 218 214 217 211 213 228 220 225 255 219 198 230 230 228 235 237 230 222 224 227 224 221 219 218 219 223 227 233
238 236 232 229 226 226 228 232 230 225 224 223 223 226 228 230 232 233 233 234 234 234 235 237 236 232 233 235 234 236 235 233 231 228 226 231 238 247 249 244 243 244 245 245 240 235 233 234 236 241 241 233 227 226 225 223 220 217 217 219 217 214 211 213 220 223 226 239 256 242 243 249 224 219 234 240 228 219 219 222 221 215 212 214 217 223 229 235
233 235 236 232 227 228 230 229 228 226 225 226 229 231 229 228 231 233 232 231 232 234 236 237 238 237 237 236 233 233 233 234 235 231 229 233 236 243 248 246 244 245 244 242 237 229 226 231 233 232 231 228 229 234 233 227 225 224 220 217 216 213 207 209 228 220 221 233 241 251 278 270 206 188 202 206 199 204 214 216 214 209 208 214 221 227 233 236
229 230 234 236 233 233 231 226 226 227 226 226 228 229 228 229 233 236 235 232 231 233 236 236 237 237 238 237 234 233 232 234 237 235 234 236 238 241 245 248 248 247 244 244 242 234 226 227 229 231 237 237 237 240 237 229 225 226 224 220 216 215 212 209 217 213 212 226 236 250 281 265 237 194 180 182 187 205 223 215 205 204 212 224 227 230 235 240
236 233 232 233 233 235 232 225 222 222 224 229 229 227 228 232 236 238 238 235 232 233 236 237 238 238 237 237 236 235 235 237 240 240 240 240 241 242 244 246 248 248 244 242 243 237 226 223 224 229 243 245 244 245 241 234 227 223 225 223 216 218 218 215 222 227 210 218 223 231 257 247 224 193 184 190 208 226 236 226 218 226 240 244 239 238 243 248
237 239 237 234 234 235 231 225 221 221 225 229 228 223 225 230 235 237 238 236 235 236 237 238 240 242 241 239 239 241 242 243 245 245 245 245 245 245 245 246 247 249 246 243 243 238 226 221 218 217 243 249 244 246 242 235 229 225 227 226 221 222 220 218 225 232 238 232 217 213 242 227 196 197 206 224 234 232 234 233 236 252 255 247 241 241 245 247
234 238 239 237 238 238 235 232 230 228 227 228 228 227 228 229 233 236 238 239 239 240 239 238 241 244 244 242 242 244 244 245 246 247 247 247 248 248 247 247 249 251 251 249 246 241 232 227 218 209 212 221 221 231 233 231 229 226 227 227 225 223 220 221 223 224 241 242 225 222 234 219 203 221 230 235 235 236 239 233 241 255 246 233 235 241 247 247
233 234 235 236 238 239 238 237 236 234 231 228 226 228 229 230 233 235 235 237 240 241 239 240 242 244 245 245 244 244 244 245 246 247 249 250 250 249 248 250 252 252 252 250 245 240 235 230 225 223 224 225 227 233 237 236 233 229 228 227 226 225 224 222 220 220 229 235 233 234 233 225 236 240 230 230 238 249 251 247 255 256 240 234 241 247 250 249
232 233 233 233 232 233 235 236 234 236 238 234 228 229 231 230 231 231 231 235 239 239 238 240 244 245 246 247 245 244 245 247 247 248 251 253 254 254 255 256 255 254 253 249 244 239 235 232 232 231 230 231 235 241 246 248 244 238 235 231 228 226 223 220 220 225 227 224 236 240 234 231 243 248 248 253 258 265 266 268 267 254 241 246 251 251 252 250
231 233 235 234 232 232 235 238 237 237 240 238 235 237 237 234 234 233 233 236 238 237 237 239 243 244 247 248 245 243 245 246 247 250 253 254 256 256 256 256 256 255 254 250 246 240 235 236 237 234 231 233 236 240 246 248 247 243 240 237 235 230 225 222 223 226 226 225 234 241 240 240 245 249 256 262 267 272 273 273 267 259 258 260 259 257 255 251
228 232 235 235 235 236 238 242 242 238 238 236 235 237 239 238 238 237 237 237 235 235 237 240 244 246 248 249 245 243 245 246 248 253 255 255 256 256 255 256 256 256 255 252 250 245 237 237 240 236 232 234 234 237 242 245 245 241 237 237 238 235 230 228 228 227 227 231 238 242 246 249 248 250 256 264 270 271 269 268 270 274 277 273 267 262 258 254
226 230 234 235 236 237 237 239 240 237 236 233 231 235 239 238 237 238 237 236 235 237 240 244 249 251 250 249 247 246 250 252 254 257 259 258 257 257 258 259 259 259 257 253 250 245 237 236 240 237 234 236 236 236 239 242 243 242 237 234 234 235 233 230 230 229 228 233 239 242 248 253 255 257 259 263 267 266 267 272 277 282 282 275 266 258 253 252
225 229 233 236 238 238 237 238 240 239 237 233 232 235 238 236 236 237 237 239 242 245 248 249 252 253 251 248 248 250 254 256 255 256 257 257 258 259 260 261 261 261 259 254 250 244 237 235 237 235 234 236 238 238 239 241 244 243 241 237 229 226 227 226 228 229 230 234 240 243 247 250 254 259 263 263 264 267 272 277 281 282 278 270 263 256 252 251
225 228 231 235 238 239 239 238 238 237 236 236 237 238 238 238 238 238 237 238 240 242 245 249 251 253 252 250 252 256 257 255 255 257 258 259 260 260 260 260 260 260 258 254 249 243 237 233 231 230 229 232 236 237 237 238 242 242 242 241 233 226 228 229 229 231 233 236 240 241 244 249 255 263 266 267 268 271 276 278 277 275 271 266 262 260 259 259
Height
3155 3156 3156 3157 3158 3159 3159 3160 3161 3161 3162 3163 3164 3165 3165 3166 3166 3167 3167 3167 3168 3168 3168 3169 3169 3169 3169 3170 3170 3170 3170 3170 3170 3170 3170 3170 3170 3170 3170 3171 3171 3171 3171 3171 3171 3171 3171 3171 3171 3172 3172 3172 3172 3172 3172 3173 3173 3173 3174 3175 3176 3176 3175 3175 3175 3175 3175 3174 3174 3175 3175 3176 3176 3176 3176 3176 3176 3175 3175 3173 3173 3174 3174 3175 3175 3175 3175 3175
3154 3155 3155 3156 3157 3158 3159 3159 3160 3161 3162 3162 3163 3164 3165 3165 3166 3166 3167 3167 3167 3168 3168 3168 3168 3169 3169 3169 3169 3169 3169 3170 3170 3170 3170 3170 3170 3170 3170 3170 3170 3170 3170 3170 3171 3171 3171 3171 3171 3171 3171 3172 3172 3172 3172 3172 3173 3173 3174 3175 3175 3174 3174 3173 3174 3174 3174 3174 3173 3174 3174 3175 3175 3175 3175 3176 3175 3175 3175 3173 3172 3173 3173 3173 3173 3174 3174 3173
3153 3154 3154 3155 3156 3157 3158 3159 3159 3160 3161 3162 3163 3163 3164 3165 3165 3166 3166 3166 3167 3167 3167 3168 3168 3168 3168 3168 3169 3169 3169 3169 3169 3169 3169 3169 3169 3169 3169 3170 3170 3170 3170 3170 3170 3170 3171 3171 3171 3171 3171 3172 3172 3172 3172 3172 3173 3173 3173 3175 3174 3173 3173 3173 3173 3173 3173 3173 3172 3173 3173 3173 3173 3174 3174 3175 3175 3175 3175 3173 3172 3171 3171 3172 3172 3172 3172 3172
3152 3152 3153 3154 3155 3156 3157 3158 3159 3159 3160 3161 3162 3163 3163 3164 3164 3165 3165 3165 3166 3166 3166 3167 3167 3167 3167 3168 3168 3168 3168 3168 3168 3168 3168 3168 3168 3168 3169 3169 3169 3169 3170 3170 3170 3170 3170 3171 3171 3171 3171 3171 3172 3172 3172 3172 3172 3173 3173 3174 3173 3172 3172 3172 3172 3172 3172 3172 3172 3172 3172 3172 3172 3172 3173 3173 3174 3174 3173 3172 3172 3170 3170 3171 3171 3171 3171 3171
3150 3151 3152 3153 3154 3155 3156 3157 3158 3158 3159 3160 3161 3162 3162 3163 3163 3164 3164 3165 3165 3165 3166 3166 3166 3166 3166 3167 3167 3167 3168 3168 3167 3167 3167 3167 3168 3168 3168 3169 3169 3169 3169 3170 3170 3170 3170 3170 3171 3171 3171 3171 3171 3171 3171 3172 3172 3172 3172 3172 3172 3172 3172 3171 3171 3171 3171 3171 3171 3171 3171 3171 3171 3171 3171 3172 3172 3172 3171 3171 3171 3170 3170 3170 3169 3169 3169 3169
3149 3150 3151 3152 3153 3154 3155 3156 3157 3157 3158 3159 3160 3161 3161 3162 3162 3163 3163 3163 3164 3164 3165 3165 3165 3165 3165 3165 3166 3166 3167 3167 3165 3166 3166 3166 3167 3167 3168 3168 3168 3169 3169 3169 3169 3170 3170 3170 3170 3171 3171 3171 3171 3171 3171 3171 3171 3171 3171 3171 3171 3171 3171 3170 3170 3170 3170 3170 3170 3170 3170 3170 3170 3169 3170 3170 3170 3170 3170 3169 3169 3169 3169 3168 3168 3168 3168 3168
3148 3149 3150 3151 3152 3153 3154 3154 3155 3156 3157 3158 3159 3159 3160 3161 3161 3162 3162 3162 3163 3163 3163 3164 3164 3164 3164 3164 3164 3165 3165 3165 3164 3165 3165 3165 3166 3167 3167 3167 3168 3168 3168 3169 3169 3169 3169 3170 3170 3170 3170 3170 3170 3170 3170 3170 3170 3171 3170 3169 3170 3170 3170 3169 3169 3169 3168 3168 3168 3168 3169 3168 3168 3167 3167 3168 3168 3168 3168 3168 3167 3167 3167 3167 3167 3167 3166 3166
3146 3147 3148 3149 3150 3151 3152 3153 3154 3155 3156 3157 3157 3158 3159 3159 3160 3160 3160 3161 3161 3162 3162 3162 3162 3162 3163 3163 3163 3163 3163 3163 3163 3164 3164 3165 3165 3166 3166 3167 3167 3167 3168 3168 3168 3168 3169 3169 3169 3169 3170 3169 3169 3169 3169 3169 3169 3169 3168 3167 3168 3168 3168 3168 3168 3167 3167 3167 3167 3167 3167 3167 3166 3166 3165 3166 3166 3166 3166 3166 3166 3165 3165 3165 3165 3165 3165 3165
3144 3145 3146 3147 3148 3149 3150 3152 3153 3154 3155 3155 3156 3157 3157 3158 3158 3159 3159 3159 3160 3160 3160 3161 3161 3161 3161 3161 3161 3161 3162 3162 3162 3162 3163 3164 3164 3165 3165 3166 3166 3166 3167 3167 3167 3168 3168 3168 3168 3168 3168 3168 3168 3168 3168 3168 3168 3167 3167 3166 3166 3166 3166 3166 3166 3166 3166 3166 3165 3166 3166 3165 3164 3164 3163 3163 3164 3164 3164 3164 3164 3164 3164 3163 3163 3164 3164 3164
3142 3143 3144 3145 3146 3148 3149 3150 3151 3152 3153 3154 3154 3155 3156 3156 3157 3157 3158 3158 3158 3159 3159 3159 3159 3159 3160 3160 3160 3160 3160 3161 3161 3161 3162 3162 3163 3164 3164 3164 3165 3165 3165 3166 3166 3166 3167 3167 3167 3167 3167 3166 3166 3166 3166 3167 3166 3165 3165 3165 3165 3165 3165 3165 3164 3164 3164 3164 3164 3164 3164 3162 3163 3163 3161 3161 3162 3162 3162 3162 3162 3162 3162 3162 3162 3162 3162 3163
3140 3141 3142 3143 3144 3145 3147 3148 3149 3150 3151 3152 3152 3153 3154 3155 3155 3155 3156 3156 3156 3157 3157 3157 3157 3158 3158 3158 3158 3158 3159 3159 3159 3159 3160 3161 3161 3162 3163 3163 3163 3164 3164 3164 3165 3165 3165 3165 3166 3166 3165 3165 3165 3165 3164 3164 3164 3164 3164 3163 3163 3163 3163 3163 3163 3162 3162 3162 3162 3162 3162 3160 3160 3160 3159 3160 3161 3160 3161 3160 3160 3160 3160 3161 3160 3160 3161 3161
3137 3138 3139 3141 3142 3143 3144 3145 3146 3147 3148 3149 3150 3151 3152 3152 3153 3153 3154 3154 3154 3155 3155 3155 3155 3155 3155 3155 3156 3156 3157 3157 3157 3158 3159 3159 3160 3160 3161 3161 3162 3162 3162 3163 3163 3163 3164 3164 3164 3164 3164 3164 3163 3163 3163 3162 3162 3162 3162 3162 3161 3161 3161 3160 3161 3161 3160 3160 3160 3160 3159 3158 3158 3158 3158 3159 3159 3159 3159 3159 3159 3159 3159 3158 3158 3159 3159 3159
3135 3136 3137 3138 3139 3140 3141 3142 3144 3145 3146 3146 3147 3148 3149 3150 3150 3151 3151 3152 3152 3152 3153 3153 3153 3153 3153 3153 3154 3155 3155 3155 3156 3156 3157 3157 3158 3159 3159 3160 3160 3160 3161 3161 3161 3162 3162 3162 3162 3162 3162 3162 3161 3161 3161 3160 3161 3161 3160 3160 3160 3160 3159 3158 3158 3159 3159 3158 3158 3158 3158 3156 3155 3156 3157 3157 3157 3157 3157 3157 3157 3157 3157 3156 3156 3157 3157 3157
3132 3133 3134 3136 3137 3138 3139 3140 3141 3142 3143 3144 3145 3145 3146 3147 3147 3148 3149 3149 3150 3150 3150 3151 3151 3151 3150 3150 3152 3152 3153 3153 3154 3154 3155 3155 3156 3156 3157 3158 3158 3158 3159 3159 3159 3160 3160 3160 3160 3160 3160 3160 3160 3159 3159 3158 3159 3159 3159 3158 3158 3159 3157 3156 3156 3157 3157 3157 3157 3157 3157 3155 3153 3154 3155 3155 3155 3155 3155 3154 3154 3154 3154 3154 3154 3154 3155 3155
3129 3130 3132 3133 3134 3135 3137 3138 3139 3140 3141 3141 3142 3143 3143 3144 3145 3145 3146 3146 3147 3147 3148 3148 3148 3148 3147 3147 3149 3150 3150 3151 3152 3152 3153 3153 3154 3154 3155 3155 3156 3156 3157 3157 3157 3157 3158 3158 3158 3158 3158 3158 3158 3158 3157 3157 3157 3157 3157 3157 3156 3156 3156 3154 3154 3155 3155 3155 3156 3156 3155 3154 3151 3152 3153 3153 3153 3153 3152 3152 3152 3152 3152 3152 3152 3152 3153 3153
3126 3127 3129 3130 3131 3133 3134 3135 3136 3137 3138 3139 3140 3140 3141 3141 3142 3143 3143 3144 3144 3145 3145 3145 3146 3146 3144 3144 3146 3147 3148 3149 3150 3150 3150 3151 3151 3152 3153 3153 3153 3154 3154 3155 3155 3155 3155 3155 3155 3156 3156 3156 3156 3156 3156 3156 3156 3155 3155 3155 3155 3155 3155 3153 3151 3152 3153 3153 3154 3154 3154 3153 3150 3149 3150 3151 3151 3150 3150 3150 3150 3150 3150 3149 3150 3150 3150 3151
3123 3124 3125 3127 3128 3129 3131 3132 3133 3134 3135 3136 3137 3138 3138 3139 3139 3140 3140 3141 3142 3142 3143 3142 3143 3143 3141 3142 3143 3145 3146 3147 3147 3148 3148 3149 3149 3150 3150 3151 3151 3152 3152 3152 3152 3152 3153 3153 3153 3153 3153 3154 3154 3154 3155 3155 3155 3154 3153 3153 3153 3153 3153 3152 3150 3149 3151 3151 3152 3151 3151 3151 3148 3147 3148 3148 3148 3148 3148 3147 3147 3147 3147 3147 3147 3148 3148 3148
3119 3121 3122 3124 3125 3126 3128 3129 3130 3131 3132 3133 3134 3135 3136 3136 3137 3137 3137 3138 3139 3139 3139 3139 3141 3140 3138 3139 3141 3142 3143 3144 3144 3145 3145 3146 3147 3147 3148 3148 3149 3149 3150 3150 3150 3150 3150 3150 3151 3151 3151 3151 3151 3152 3152 3152 3153 3154 3152 3151 3151 3151 3150 3151 3149 3147 3148 3149 3150 3149 3148 3148 3147 3144 3145 3145 3145 3145 3145 3145 3145 3144 3145 3145 3145 3146 3146 3146
3116 3117 3119 3120 3122 3123 3125 3126 3127 3128 3129 3130 3131 3132 3133 3133 3134 3134 3135 3135 3135 3137 3137 3137 3138 3138 3136 3137 3138 3139 3140 3141 3141 3142 3143 3144 3145 3145 3145 3146 3146 3147 3147 3147 3147 3147 3148 3147 3147 3148 3148 3148 3148 3148 3149 3150 3152 3151 3150 3150 3149 3149 3149 3149 3147 3144 3145 3146 3146 3146 3145 3146 3145 3142 3141 3142 3142 3142 3141 3141 3142 3142 3142 3142 3143 3143 3144 3144
3112 3114 3115 3117 3119 3120 3121 3123 3124 3125 3126 3127 3128 3129 3130 3130 3131 3131 3131 3132 3133 3134 3134 3133 3134 3135 3134 3134 3136 3137 3137 3138 3139 3140 3141 3142 3142 3142 3143 3143 3144 3144 3144 3144 3144 3144 3145 3144 3143 3144 3145 3146 3146 3146 3148 3149 3149 3148 3148 3148 3147 3147 3147 3147 3145 3142 3143 3144 3143 3144 3143 3142 3143 3140 3137 3138 3139 3138 3138 3138 3139 3139 3139 3140 3140 3141 3141 3142
3108 3110 3112 3114 3116 3117 3118 3119 3121 3122 3123 3124 3125 3126 3126 3128 3129 3127 3127 3129 3129 3130 3130 3130 3131 3131 3130 3132 3133 3134 3135 3135 3136 3137 3138 3139 3140 3140 3140 3141 3141 3141 3142 3143 3141 3141 3143 3139 3138 3142 3143 3145 3144 3144 3145 3146 3145 3146 3146 3145 3145 3145 3144 3145 3142 3140 3141 3141 3140 3141 3139 3137 3139 3137 3134 3135 3135 3135 3135 3136 3136 3137 3137 3137 3138 3139 3139 3140
3104 3106 3108 3110 3112 3113 3115 3116 3118 3119 3120 3121 3122 3123 3124 3126 3126 3125 3125 3125 3124 3126 3127 3126 3126 3127 3128 3129 3130 3132 3132 3132 3133 3134 3136 3137 3137 3137 3138 3139 3139 3139 3139 3139 3138 3139 3138 3134 3136 3141 3141 3141 3142 3142 3143 3142 3143 3143 3143 3143 3142 3142 3143 3142 3139 3138 3139 3138 3137 3137 3135 3134 3135 3133 3131 3132 3132 3132 3133 3133 3134 3134 3135 3135 3136 3136 3137 3137
3101 3102 3104 3106 3108 3110 3111 3112 3114 3115 3116 3117 3119 3121 3122 3123 3123 3123 3123 3121 3119 3121 3122 3122 3122 3123 3124 3124 3127 3129 3128 3128 3130 3131 3133 3134 3134 3135 3134 3135 3136 3136 3135 3135 3136 3136 3133 3131 3134 3138 3138 3138 3139 3139 3140 3140 3140 3140 3140 3140 3140 3140 3141 3140 3138 3136 3136 3136 3135 3134 3132 3131 3131 3129 3128 3129 3129 3129 3131 3131 3131 3132 3132 3133 3133 3134 3135 3135
3097 3099 3100 3102 3105 3105 3107 3109 3110 3111 3113 3115 3117 3119 3119 3119 3120 3120 3120 3118 3115 3115 3117 3118 3119 3119 3119 3120 3123 3125 3123 3125 3127 3125 3129 3130 3131 3132 3131 3131 3134 3132 3130 3131 3134 3133 3131 3130 3131 3135 3136 3136 3136 3135 3136 3137 3137 3136 3136 3137 3138 3138 3139 3139 3137 3134 3134 3133 3132 3133 3130 3127 3127 3125 3124 3126 3126 3127 3128 3128 3129 3130 3130 3131 3131 3132 3132 3133
3092 3095 3096 3098 3100 3101 3103 3104 3105 3109 3110 3112 3115 3116 3116 3116 3118 3118 3119 3116 3110 3108 3111 3113 3114 3114 3115 3116 3118 3120 3120 3121 3121 3121 3125 3128 3127 3128 3128 3128 3129 3128 3126 3129 3130 3129 3128 3127 3128 3132 3133 3133 3134 3132 3133 3135 3135 3134 3133 3133 3135 3137 3137 3137 3135 3133 3133 3132 3129 3132 3130 3123 3122 3122 3121 3122 3123 3124 3125 3126 3126 3127 3128 3128 3129 3129 3130 3130
3088 3090 3092 3094 3096 3097 3098 3098 3102 3106 3106 3110 3112 3112 3113 3114 3116 3117 3117 3116 3106 3101 3105 3108 3109 3108 3108 3111 3113 3118 3117 3113 3114 3119 3122 3123 3123 3125 3125 3124 3124 3124 3125 3126 3127 3125 3123 3123 3124 3128 3129 3130 3131 3129 3131 3133 3133 3132 3131 3131 3133 3133 3134 3134 3133 3132 3132 3130 3128 3129 3129 3123 3121 3121 3119 3119 3121 3121 3122 3123 3124 3125 3125 3126 3126 3127 3127 3128
3083 3085 3087 3090 3091 3092 3094 3095 3100 3102 3103 3108 3108 3109 3111 3112 3114 3115 3116 3117 3103 3093 3097 3102 3103 3102 3103 3107 3110 3114 3112 3106 3110 3115 3116 3117 3119 3121 3121 3119 3118 3121 3122 3123 3123 3118 3117 3120 3122 3124 3127 3127 3126 3127 3128 3129 3130 3129 3128 3129 3130 3131 3131 3131 3131 3130 3130 3129 3127 3126 3127 3125 3121 3119 3118 3118 3119 3119 3120 3121 3121 3122 3123 3123 3124 3125 3125 3126
3078 3080 3082 3085 3087 3088 3090 3092 3095 3098 3101 3105 3104 3106 3108 3109 3112 3113 3116 3115 3098 3086 3091 3094 3096 3097 3099 3103 3105 3108 3106 3103 3106 3110 3111 3114 3115 3115 3115 3115 3115 3116 3118 3119 3118 3115 3114 3117 3119 3121 3123 3122 3122 3124 3125 3126 3127 3126 3126 3127 3128 3128 3129 3129 3129 3128 3128 3128 3125 3123 3125 3123 3118 3116 3116 3117 3117 3117 3117 3118 3119 3119 3120 3121 3122 3123 3124 3124
3073 3075 3077 3080 3082 3084 3085 3086 3090 3095 3098 3099 3101 3103 3104 3107 3109 3110 3114 3108 3090 3083 3087 3089 3092 3094 3095 3098 3100 3102 3102 3102 3103 3104 3107 3110 3110 3110 3110 3111 3113 3113 3113 3114 3114 3113 3112 3113 3117 3119 3119 3118 3119 3121 3122 3124 3124 3123 3124 3125 3126 3127 3127 3128 3128 3127 3127 3124 3120 3121 3122 3120 3114 3113 3114 3113 3113 3114 3114 3115 3116 3116 3118 3119 3120 3121 3122 3122
3068 3070 3073 3075 3076 3077 3079 3082 3087 3091 3093 3094 3097 3098 3100 3102 3103 3107 3108 3097 3084 3081 3082 3085 3088 3090 3092 3094 3096 3098 3099 3099 3100 3101 3104 3105 3105 3107 3106 3108 3111 3109 3108 3109 3110 3110 3109 3111 3113 3114 3114 3115 3116 3117 3119 3121 3120 3121 3122 3123 3125 3125 3125 3127 3126 3127 3126 3119 3115 3118 3119 3118 3113 3109 3110 3110 3110 3112 3112 3112 3113 3114 3115 3117 3118 3119 3119 3119
3063 3065 3067 3069 3071 3073 3076 3079 3083 3086 3088 3090 3092 3093 3096 3097 3099 3102 3095 3084 3081 3079 3078 3081 3084 3085 3089 3091 3093 3095 3095 3096 3097 3098 3099 3100 3101 3102 3102 3104 3106 3106 3106 3105 3105 3105 3106 3107 3108 3108 3110 3111 3113 3115 3116 3117 3117 3119 3120 3122 3124 3124 3124 3125 3125 3126 3123 3113 3110 3113 3115 3116 3111 3105 3107 3107 3107 3109 3109 3109 3111 3112 3113 3115 3116 3116 3116 3117
3058 3060 3062 3064 3067 3069 3071 3076 3080 3082 3083 3085 3087 3088 3090 3092 3093 3088 3079 3078 3081 3076 3073 3077 3080 3083 3087 3089 3090 3091 3092 3093 3093 3094 3095 3096 3097 3096 3097 3099 3100 3103 3102 3100 3101 3102 3101 3101 3103 3104 3106 3108 3111 3112 3112 3113 3114 3116 3118 3120 3122 3122 3123 3122 3121 3120 3116 3109 3108 3110 3112 3111 3104 3102 3105 3104 3104 3106 3106 3107 3109 3110 3111 3112 3113 3114 3114 3115
3052 3055 3057 3059 3061 3064 3067 3072 3075 3076 3077 3080 3081 3082 3084 3085 3079 3071 3071 3076 3076 3070 3070 3074 3077 3081 3084 3084 3085 3086 3088 3089 3089 3091 3091 3092 3093 3092 3094 3096 3096 3098 3099 3098 3099 3100 3099 3098 3098 3100 3100 3102 3105 3106 3106 3107 3109 3110 3112 3116 3117 3118 3120 3118 3114 3113 3110 3106 3106 3108 3110 3106 3098 3098 3101 3100 3101 3103 3104 3105 3106 3107 3108 3109 3110 3111 3111 3112
3048 3050 3052 3054 3056 3059 3064 3068 3068 3068 3071 3073 3074 3075 3076 3073 3065 3062 3067 3070 3070 3068 3070 3072 3075 3078 3080 3080 3080 3082 3084 3084 3084 3087 3088 3088 3089 3087 3089 3091 3092 3094 3097 3098 3097 3096 3097 3094 3092 3094 3095 3096 3098 3100 3102 3103 3105 3106 3108 3111 3111 3111 3113 3111 3107 3105 3104 3103 3104 3107 3107 3100 3094 3094 3095 3096 3098 3100 3101 3102 3103 3105 3106 3106 3107 3108 3108 3109
3044 3045 3046 3048 3050 3053 3057 3061 3061 3063 3065 3066 3067 3066 3064 3060 3056 3058 3062 3064 3066 3067 3068 3071 3074 3076 3076 3077 3077 3079 3081 3081 3081 3084 3084 3083 3083 3083 3084 3086 3088 3091 3093 3096 3094 3093 3093 3090 3087 3090 3091 3092 3095 3097 3099 3101 3102 3103 3106 3108 3106 3106 3108 3106 3102 3101 3101 3101 3101 3101 3099 3092 3091 3091 3091 3093 3095 3097 3099 3100 3101 3102 3103 3104 3104 3105 3106 3106
3040 3040 3041 3040 3042 3047 3051 3054 3057 3057 3058 3059 3058 3054 3051 3051 3051 3054 3057 3060 3062 3063 3066 3069 3071 3072 3073 3073 3074 3076 3078 3078 3079 3080 3080 3080 3079 3079 3080 3081 3084 3086 3087 3090 3090 3089 3090 3087 3085 3087 3089 3090 3092 3094 3095 3097 3098 3099 3100 3099 3099 3102 3105 3103 3101 3101 3101 3099 3094 3091 3090 3089 3089 3089 3089 3091 3093 3094 3096 3097 3098 3099 3100 3101 3102 3103 3104 3104
3032 3033 3034 3034 3036 3041 3044 3048 3052 3052 3051 3052 3049 3045 3044 3046 3048 3051 3053 3055 3057 3060 3063 3066 3066 3067 3069 3069 3070 3073 3075 3075 3075 3076 3076 3076 3075 3073 3075 3077 3079 3081 3082 3086 3086 3085 3086 3084 3082 3084 3086 3086 3089 3090 3091 3093 3094 3094 3095 3094 3097 3102 3103 3102 3102 3100 3099 3097 3088 3084 3086 3086 3086 3084 3084 3088 3090 3091 3093 3095 3096 3096 3097 3098 3099 3100 3101 3101
3026 3028 3027 3027 3031 3036 3038 3042 3045 3046 3045 3043 3041 3041 3042 3043 3044 3047 3048 3051 3054 3057 3060 3061 3061 3062 3064 3065 3067 3069 3071 3070 3069 3071 3072 3072 3070 3068 3071 3074 3076 3077 3079 3082 3082 3081 3082 3082 3080 3081 3083 3084 3087 3088 3088 3088 3090 3091 3091 3092 3095 3098 3097 3099 3100 3096 3095 3093 3085 3081 3082 3081 3080 3079 3080 3084 3087 3088 3090 3092 3092 3093 3094 3096 3096 3097 3098 3098
3023 3022 3020 3022 3027 3031 3034 3037 3038 3040 3038 3034 3033 3034 3036 3036 3039 3042 3045 3048 3051 3053 3055 3056 3057 3059 3059 3061 3063 3065 3066 3064 3064 3067 3068 3068 3067 3065 3068 3072 3073 3074 3076 3078 3078 3077 3078 3080 3077 3077 3079 3082 3083 3082 3081 3082 3085 3088 3089 3089 3091 3092 3092 3093 3093 3090 3090 3088 3083 3080 3078 3074 3073 3075 3077 3080 3083 3086 3087 3088 3089 3091 3092 3093 3094 3094 3095 3095
3017 3016 3014 3017 3022 3025 3030 3032 3031 3031 3028 3026 3027 3027 3029 3031 3033 3037 3041 3043 3046 3049 3050 3052 3054 3055 3055 3057 3059 3060 3062 3061 3061 3064 3065 3064 3064 3063 3065 3069 3070 3071 3073 3075 3076 3076 3077 3077 3075 3074 3075 3077 3076 3075 3075 3078 3080 3081 3082 3083 3084 3086 3088 3089 3087 3085 3086 3083 3080 3078 3074 3068 3069 3071 3073 3076 3080 3083 3085 3086 3088 3088 3089 3090 3091 3092 3092 3092
3012 3011 3009 3013 3018 3021 3025 3025 3022 3022 3021 3021 3022 3023 3025 3028 3030 3033 3037 3039 3042 3045 3047 3049 3050 3051 3052 3053 3054 3056 3058 3059 3058 3060 3061 3060 3061 3062 3062 3064 3066 3068 3070 3072 3072 3073 3074 3073 3072 3071 3070 3071 3070 3071 3074 3076 3076 3076 3077 3076 3078 3080 3084 3085 3082 3080 3081 3080 3078 3076 3072 3066 3067 3069 3071 3074 3077 3080 3082 3084 3085 3086 3087 3088 3089 3089 3089 3090
3007 3005 3005 3009 3013 3015 3018 3015 3013 3015 3015 3015 3017 3019 3021 3024 3026 3030 3033 3035 3038 3040 3042 3044 3045 3047 3048 3049 3050 3052 3054 3055 3055 3056 3056 3056 3058 3059 3059 3060 3063 3065 3067 3067 3067 3068 3070 3070 3070 3069 3067 3067 3069 3069 3072 3073 3073 3074 3074 3074 3077 3078 3078 3078 3076 3074 3077 3077 3076 3077 3073 3065 3065 3068 3069 3072 3075 3077 3080 3082 3083 3084 3084 3085 3086 3086 3087 3088
3001 3001 3002 3005 3008 3010 3011 3008 3008 3010 3010 3011 3014 3017 3019 3020 3022 3025 3027 3031 3034 3036 3037 3038 3040 3042 3044 3045 3047 3048 3050 3051 3051 3051 3052 3053 3054 3055 3056 3057 3059 3061 3063 3064 3063 3065 3067 3067 3068 3067 3065 3065 3067 3067 3069 3070 3070 3069 3067 3069 3073 3072 3072 3074 3073 3072 3073 3072 3073 3077 3072 3063 3063 3067 3068 3070 3072 3074 3077 3078 3080 3081 3081 3082 3083 3083 3085 3086
2996 2997 2998 3000 3003 3005 3004 3002 3002 3003 3005 3008 3011 3014 3016 3017 3018 3019 3022 3025 3028 3030 3032 3033 3035 3037 3039 3041 3043 3044 3045 3047 3046 3047 3048 3049 3050 3051 3052 3053 3055 3057 3058 3059 3060 3061 3063 3062 3064 3066 3065 3064 3065 3064 3064 3063 3063 3062 3062 3065 3066 3067 3070 3071 3071 3072 3070 3067 3069 3071 3066 3061 3063 3065 3066 3068 3070 3072 3074 3075 3076 3076 3078 3079 3080 3081 3082 3082
2992 2993 2994 2995 2998 2998 2997 2997 2999 2999 3001 3004 3006 3009 3011 3012 3013 3014 3017 3021 3024 3026 3028 3029 3030 3033 3035 3037 3038 3039 3040 3041 3042 3043 3044 3044 3045 3047 3048 3050 3052 3053 3054 3055 3057 3058 3058 3057 3059 3060 3058 3056 3055 3054 3052 3051 3053 3055 3057 3059 3060 3063 3066 3066 3069 3071 3066 3062 3065 3064 3060 3061 3063 3063 3064 3066 3067 3070 3072 3072 3073 3073 3075 3076 3077 3078 3078 3078
2988 2988 2989 2991 2992 2992 2992 2994 2996 2996 2998 3000 3001 3003 3005 3007 3008 3010 3013 3016 3019 3022 3023 3024 3026 3029 3030 3032 3033 3033 3034 3037 3038 3039 3038 3039 3040 3042 3045 3047 3048 3049 3050 3051 3053 3054 3053 3053 3052 3050 3048 3048 3047 3046 3046 3046 3048 3049 3050 3052 3054 3057 3059 3062 3066 3064 3059 3060 3060 3055 3056 3061 3061 3060 3062 3063 3065 3068 3069 3070 3070 3071 3072 3074 3074 3075 3075 3075
2982 2982 2983 2985 2987 2987 2987 2988 2990 2991 2993 2996 2996 2997 3000 3002 3004 3006 3009 3011 3014 3016 3018 3019 3021 3023 3023 3025 3027 3028 3029 3032 3034 3033 3033 3034 3036 3038 3040 3042 3043 3045 3046 3047 3047 3048 3048 3047 3046 3045 3045 3046 3045 3044 3045 3045 3045 3045 3046 3048 3049 3051 3054 3057 3056 3053 3055 3057 3052 3048 3054 3059 3058 3058 3061 3062 3064 3066 3067 3067 3068 3068 3070 3070 3071 3071 3071 3071
2977 2976 2978 2981 2981 2980 2981 2982 2985 2986 2988 2991 2992 2994 2996 2998 3000 3002 3004 3007 3009 3011 3013 3014 3014 3016 3017 3020 3023 3024 3026 3028 3028 3027 3028 3030 3031 3033 3034 3036 3038 3040 3041 3042 3042 3042 3042 3040 3040 3042 3043 3043 3043 3042 3042 3042 3042 3043 3044 3044 3045 3047 3048 3047 3046 3047 3051 3050 3045 3046 3052 3054 3055 3058 3059 3060 3062 3064 3064 3065 3065 3065 3066 3066 3066 3066 3066 3067
2972 2972 2974 2976 2976 2976 2978 2980 2982 2983 2985 2986 2987 2988 2991 2993 2995 2997 3000 3002 3004 3006 3008 3009 3009 3011 3014 3016 3019 3020 3021 3022 3022 3022 3024 3026 3027 3028 3029 3031 3033 3034 3036 3036 3036 3037 3037 3034 3035 3038 3038 3038 3039 3039 3039 3040 3040 3039 3040 3041 3041 3041 3041 3042 3042 3045 3047 3044 3043 3046 3049 3048 3051 3055 3056 3057 3060 3061 3061 3061 3061 3062 3062 3062 3062 3062 3062 3063
2967 2968 2970 2971 2971 2973 2976 2977 2978 2979 2981 2982 2982 2983 2985 2988 2990 2993 2995 2996 2998 3001 3003 3004 3006 3008 3010 3012 3013 3013 3014 3016 3018 3019 3021 3023 3023 3024 3025 3026 3028 3029 3030 3031 3032 3032 3032 3030 3031 3033 3034 3034 3035 3035 3036 3037 3037 3037 3037 3037 3037 3036 3037 3039 3040 3042 3043 3041 3040 3044 3046 3045 3046 3050 3053 3055 3057 3057 3057 3057 3058 3058 3057 3057 3057 3058 3058 3059
2963 2965 2967 2968 2968 2969 2971 2972 2974 2975 2976 2977 2978 2979 2981 2983 2986 2988 2990 2991 2994 2997 2998 3000 3003 3005 3007 3008 3008 3008 3011 3014 3014 3015 3017 3018 3019 3020 3021 3022 3023 3025 3026 3026 3027 3027 3028 3027 3028 3030 3030 3029 3030 3031 3032 3033 3034 3035 3033 3030 3030 3031 3033 3035 3036 3037 3038 3037 3039 3042 3042 3041 3043 3046 3050 3052 3053 3054 3054 3054 3054 3054 3053 3053 3054 3054 3055 3055
2959 2961 2962 2964 2964 2964 2966 2967 2969 2969 2969 2971 2974 2976 2977 2980 2983 2985 2986 2987 2990 2992 2994 2997 3000 3001 3002 3003 3003 3006 3009 3010 3010 3012 3013 3014 3014 3015 3017 3017 3019 3020 3021 3022 3022 3023 3023 3023 3024 3026 3026 3025 3026 3027 3028 3031 3032 3029 3023 3021 3025 3028 3030 3031 3032 3032 3033 3035 3037 3037 3036 3039 3043 3044 3046 3047 3048 3050 3051 3051 3050 3049 3049 3050 3050 3050 3051 3050